Simultaneous Nadir Overpasses (SNOs) Predictions

Prediction of SNOs near equator between AQUA and NPP Satellite Orbit:

Table of predicted SNOs near equator for the next 14.0 days since TLE Epoch: 10/22/2016
Index Date (AQUA) Time (AQUA) AQUA Lat,Lon Date (NPP) Time (NPP) NPP Lat,Lon Distance(km) Time Diff (sec)
1 10/22/2016 23:20:55 11.28,-148.10 10/22/2016 23:10:58 11.28,-148.10 0.25 597
2 10/23/2016 00:07:38 -1.68, 21.62 10/22/2016 23:58:54 -1.63, 21.41 24.34 524
3 10/23/2016 00:55:52 -2.98,-169.77 10/23/2016 00:48:24 -3.06,-170.25 54.39 448
4 10/23/2016 01:44:00 7.45, -1.16 10/23/2016 01:37:47 7.60, -1.90 83.80 373
5 10/25/2016 15:35:36 4.68, -30.80 10/25/2016 15:26:01 4.66, -30.84 4.68 575
6 10/25/2016 16:23:43 -0.16, 137.82 10/25/2016 16:15:24 -0.12, 137.51 34.83 499
7 10/25/2016 17:11:58 -4.45, -53.58 10/25/2016 17:04:54 -4.57, -54.15 64.56 424
8 10/25/2016 18:00:06 8.92, 115.04 10/25/2016 17:54:17 9.11, 114.20 93.74 349
9 10/28/2016 07:51:41 3.16, 85.40 10/28/2016 07:42:31 3.15, 85.26 15.07 550
10 10/28/2016 08:39:49 1.30,-106.00 10/28/2016 08:31:54 1.39,-106.39 45.18 475
11 10/28/2016 09:28:04 -5.91, 62.61 10/28/2016 09:21:24 -6.07, 61.95 74.85 400
12 10/30/2016 23:20:44 -10.67, 32.04 10/30/2016 23:10:45 -10.67, 32.03 0.75 599
13 10/31/2016 00:07:47 1.72,-158.42 10/30/2016 23:59:01 1.65,-158.64 25.62 526
14 10/31/2016 00:55:53 2.80, 10.20 10/31/2016 00:48:24 2.89, 9.71 55.68 450
15 10/31/2016 01:44:08 -7.41, 178.80 10/31/2016 01:37:53 -7.57, 178.05 84.99 375
16 11/02/2016 15:35:35 -4.78, 149.19 11/02/2016 15:25:59 -4.77, 149.13 6.03 576
17 11/02/2016 16:23:51 0.23, -42.23 11/02/2016 16:15:30 0.15, -42.54 36.13 501
18 11/02/2016 17:11:57 4.35, 126.41 11/02/2016 17:04:52 4.45, 125.82 66.13 425
19 11/02/2016 18:00:13 -8.89, -65.00 11/02/2016 17:54:23 -9.07, -65.85 95.11 350




NCC Satellite Simultaneous Nadir Overpasses (SNOs) Prediction Service
